Weather History for Tulsa, OK

Change the Weather History Date:

Saturday, July 6, 2013

  Actual Average Record
Temperature  
Mean Temperature 80 °F 82 °F  
Max Temperature 90 °F 92 °F 111 °F (1996)
Min Temperature 70 °F 72 °F 55 °F (1972)
Cooling Degree Days 15 17  
Month to date cooling degree days 64 101  
Year to date cooling degree days 687 714  
Since 1 June cooling degree days 495 480  
Growing Degree Days 30 (Base 50)    
Moisture  
Dew Point 63 °F    
Average Humidity 61    
Maximum Humidity 78    
Minimum Humidity 43    
Precipitation  
Precipitation T in 0.12 in 1.62 in (1932)
Month to date precipitation T 0.74  
Year to date precipitation 15.57 21.96  
Sea Level Pressure  
Sea Level Pressure 29.91 in    
Wind  
Wind Speed 10 mph (SSE)    
Max Wind Speed 21 mph    
Max Gust Speed 26 mph    
Visibility 10 miles    
Events Rain    
T = Trace of Precipitation, MM = Missing Value Source: NWS Daily Summary

Daily Weather History Graph

Daily Weather History Graph

Search for Another Location

Airport:

Trip Planner

Search our weather history database for the weather conditions in past years. The results will help you decide how hot, cold, wet, or windy it might be!

Date:

Astronomy

Jul. 06, 2013 Rise Set
Actual Time 6:12 AM CDT 8:44 PM CDT
Civil Twilight 5:42 AM CDT 9:14 PM CDT
Nautical Twilight 5:05 AM CDT 9:51 PM CDT
Astronomical Twilight 4:24 AM CDT 10:32 PM CDT
Moon 4:57 AM CDT (7/6) 7:28 PM CDT (7/6)
Length of Visible Light 15h 31m
Length of Day
14h 31m
Waning Crescent, 2% of the Moon is Illuminated
Jul 6
Waning Crescent
Jul 8
New
Jul 15
First Quarter
Jul 22
Full
Jul 29
Last Quarter

Hourly Weather History & Observations

Time (CDT) Temp. Heat Index Dew Point Humidity Pressure Visibility Wind Dir Wind Speed Gust Speed Precip Events Conditions
12:53 AM 79.0 °F - 60.1 °F 52% 29.90 in 10.0 mi SSE 8.1 mph - N/A   Clear
1:53 AM 78.1 °F - 62.1 °F 58% 29.90 in 10.0 mi SSE 8.1 mph - N/A   Clear
2:53 AM 77.0 °F - 62.1 °F 60% 29.89 in 10.0 mi South 10.4 mph - N/A   Clear
3:53 AM 75.9 °F - 62.1 °F 62% 29.89 in 10.0 mi SSE 10.4 mph - N/A   Partly Cloudy
4:53 AM 75.9 °F - 62.1 °F 62% 29.89 in 10.0 mi South 10.4 mph - N/A   Partly Cloudy
5:53 AM 73.9 °F - 61.0 °F 64% 29.90 in 10.0 mi SSE 9.2 mph - N/A   Clear
6:53 AM 70.0 °F - 62.1 °F 76% 29.92 in 9.0 mi ESE 5.8 mph - N/A   Partly Cloudy
7:53 AM 73.9 °F - 61.0 °F 64% 29.94 in 10.0 mi South 8.1 mph - N/A   Scattered Clouds
8:53 AM 78.1 °F - 61.0 °F 56% 29.95 in 10.0 mi South 10.4 mph - N/A   Scattered Clouds
9:53 AM 82.0 °F 82.7 °F 61.0 °F 49% 29.95 in 10.0 mi SSE 11.5 mph - N/A   Mostly Cloudy
10:53 AM 82.9 °F 83.3 °F 61.0 °F 47% 29.94 in 10.0 mi SSE 12.7 mph - N/A   Mostly Cloudy
11:53 AM 87.1 °F 87.5 °F 62.1 °F 43% 29.92 in 10.0 mi SSE 15.0 mph - N/A   Mostly Cloudy
12:53 PM 87.1 °F 87.8 °F 63.0 °F 44% 29.91 in 10.0 mi South 12.7 mph - N/A   Overcast
1:53 PM 88.0 °F 88.7 °F 63.0 °F 43% 29.90 in 10.0 mi SSE 11.5 mph - N/A   Overcast
2:53 PM 89.1 °F 90.3 °F 64.0 °F 43% 29.89 in 10.0 mi SSE 16.1 mph 26.5 mph N/A   Mostly Cloudy
3:53 PM 88.0 °F 89.3 °F 64.0 °F 45% 29.89 in 10.0 mi SSE 16.1 mph - N/A   Overcast
4:53 PM 89.1 °F 90.3 °F 64.0 °F 43% 29.89 in 10.0 mi SE 16.1 mph - N/A   Overcast
5:53 PM 87.1 °F 88.3 °F 64.0 °F 46% 29.88 in 10.0 mi SE 9.2 mph - N/A   Overcast
6:53 PM 84.0 °F 85.8 °F 64.9 °F 53% 29.90 in 10.0 mi ESE 4.6 mph - 0.00 in Rain Light Rain
7:53 PM 81.0 °F 83.3 °F 66.9 °F 62% 29.88 in 10.0 mi SE 8.1 mph - 0.00 in   Overcast
8:53 PM 82.0 °F 83.1 °F 63.0 °F 52% 29.89 in 10.0 mi SSE 6.9 mph - N/A   Mostly Cloudy
9:53 PM 79.0 °F - 62.1 °F 56% 29.91 in 10.0 mi SE 4.6 mph - N/A   Mostly Cloudy
10:53 PM 78.1 °F - 63.0 °F 60% 29.92 in 10.0 mi SE 3.5 mph - N/A   Scattered Clouds
11:53 PM 75.9 °F - 64.0 °F 67% 29.94 in 10.0 mi SE 5.8 mph - N/A   Mostly Cloudy